Location: Antin
(43.3330°N, 0.2804°E)
Time: 04:44:17
(UTC+00:00)

Cosmos 724 - Pass Details

Date: 16 October 2021
Orbit: 857 x 937 km, 65.6° (Epoch: 02 December)

Event Time Altitude Azimuth Distance (km) Brightness Sun altitude
Rises 19:17:09 0° 327° (NNW) 3,532 8.0 -23.1°
Reaches altitude 10° 19:19:42 10° 328° (NNW) 2,575 7.2 -23.6°
Maximum altitude 19:25:41 81° 56° (NE) 897 4.1 -24.6°
Enters shadow 19:26:52 59° 132° (SE) 1,012 4.2 -24.8°
